• In Belarus
  • List of Countries
  • For 7 days
  • Water Temperature
  • Satellite Maps
  • Weather Map
  • Weather Widgets
  • user-avatar
    Login

    Hourly Weather Bujumbura

    Today, 20 October, Friday

    Time Temperature Precipitation Wind Pressure Humidity
    00:00 +24°C° 0 mm 1 mps 692 mmHg 82%
    01:00 +24°C° 0 mm 1 mps 692 mmHg 82%
    02:00 +24°C° 0 mm 1 mps 692 mmHg 82%
    03:00 +24°C° 0 mm 1 mps 692 mmHg 82%
    04:00 +23°C° 0 mm 1 mps 692 mmHg 82%
    05:00 +23°C° 0 mm 1 mps 691 mmHg 83%
    06:00 +25°C° 0 mm 1 mps 692 mmHg 76%
    07:00 +27°C° 0 mm 1 mps 693 mmHg 69%
    08:00 +28°C° 0 mm 1 mps 694 mmHg 62%
    09:00 +29°C° 0.2 mm 1 mps 694 mmHg 59%
    10:00 +31°C° 0.2 mm 2 mps 694 mmHg 57%
    11:00 +32°C° 0.2 mm 2 mps 694 mmHg 54%
    12:00 +31°C° 1.2 mm 2 mps 693 mmHg 58%
    13:00 +30°C° 1.2 mm 2 mps 692 mmHg 63%
    14:00 +30°C° 1.2 mm 2 mps 691 mmHg 67%
    15:00 +29°C° 0.3 mm 1 mps 691 mmHg 69%
    16:00 +29°C° 0.3 mm 1 mps 691 mmHg 72%
    17:00 +28°C° 0.3 mm 1 mps 690 mmHg 74%
    18:00 +27°C° 0.1 mm 1 mps 691 mmHg 78%
    19:00 +26°C° 0.1 mm 1 mps 691 mmHg 81%
    20:00 +25°C° 0.1 mm 1 mps 692 mmHg 85%
    21:00 +25°C° 0 mm 1 mps 692 mmHg 85%
    22:00 +24°C° 0 mm 1 mps 692 mmHg 86%
    23:00 +24°C° 0 mm 1 mps 693 mmHg 86%

    Tomorrow, 21 October, Saturday

    Time Temperature Precipitation Wind Pressure Humidity
    00:00 +24°C° 0 mm 1 mps 692 mmHg 86%
    01:00 +24°C° 0 mm 1 mps 692 mmHg 85%
    02:00 +23°C° 0 mm 1 mps 691 mmHg 85%
    03:00 +23°C° 0 mm 1 mps 691 mmHg 85%
    04:00 +23°C° 0 mm 1 mps 692 mmHg 85%
    05:00 +23°C° 0 mm 1 mps 692 mmHg 85%
    06:00 +25°C° 0 mm 1 mps 692 mmHg 77%
    07:00 +27°C° 0 mm 1 mps 693 mmHg 69%
    08:00 +29°C° 0 mm 1 mps 694 mmHg 61%
    09:00 +30°C° 0.1 mm 1 mps 694 mmHg 57%
    10:00 +31°C° 0.1 mm 2 mps 694 mmHg 54%
    11:00 +32°C° 0.1 mm 2 mps 694 mmHg 51%
    12:00 +32°C° 0.2 mm 2 mps 693 mmHg 51%
    13:00 +32°C° 0.2 mm 2 mps 692 mmHg 52%
    14:00 +32°C° 0.2 mm 2 mps 691 mmHg 52%
    15:00 +31°C° 0.2 mm 2 mps 690 mmHg 55%
    16:00 +31°C° 0.2 mm 2 mps 690 mmHg 58%
    17:00 +30°C° 0.2 mm 1 mps 690 mmHg 61%
    18:00 +28°C° 0.1 mm 1 mps 690 mmHg 66%
    19:00 +27°C° 0.1 mm 1 mps 691 mmHg 70%
    20:00 +26°C° 0.1 mm 1 mps 692 mmHg 75%
    21:00 +25°C° 0 mm 1 mps 692 mmHg 76%
    22:00 +25°C° 0 mm 1 mps 692 mmHg 77%
    23:00 +25°C° 0 mm 1 mps 692 mmHg 78%

    Day after tomorrow, 22 October, Sunday

    Time Temperature Precipitation Wind Pressure Humidity
    00:00 +24°C° 0 mm 1 mps 692 mmHg 78%
    01:00 +24°C° 0 mm 1 mps 691 mmHg 78%
    02:00 +24°C° 0 mm 1 mps 691 mmHg 79%
    03:00 +23°C° 0 mm 1 mps 691 mmHg 79%
    04:00 +23°C° 0 mm 1 mps 691 mmHg 79%
    05:00 +23°C° 0 mm 1 mps 691 mmHg 79%
    06:00 +25°C° 0 mm 1 mps 692 mmHg 71%
    07:00 +27°C° 0 mm 1 mps 693 mmHg 63%
    08:00 +29°C° 0 mm 2 mps 694 mmHg 56%
    09:00 +30°C° 0 mm 2 mps 694 mmHg 51%
    10:00 +32°C° 0 mm 2 mps 694 mmHg 46%
    11:00 +35°C° 0 mm 2 mps 693 mmHg 40%
    12:00 +35°C° 0 mm 2 mps 692 mmHg 39%
    13:00 +36°C° 0 mm 2 mps 691 mmHg 37%
    14:00 +36°C° 0 mm 2 mps 690 mmHg 35%
    15:00 +35°C° 0 mm 2 mps 690 mmHg 37%
    16:00 +34°C° 0 mm 2 mps 690 mmHg 40%
    17:00 +32°C° 0 mm 1 mps 690 mmHg 43%
    18:00 +30°C° 0 mm 1 mps 690 mmHg 47%
    19:00 +28°C° 0 mm 1 mps 691 mmHg 51%
    20:00 +26°C° 0 mm 1 mps 691 mmHg 55%
    21:00 +25°C° 0 mm 1 mps 691 mmHg 56%
    22:00 +25°C° 0 mm 1 mps 691 mmHg 56%
    23:00 +24°C° 0 mm 1 mps 691 mmHg 56%

    23 October, Monday

    Time Temperature Precipitation Wind Pressure Humidity
    00:00 +24°C° 0 mm 1 mps 691 mmHg 56%
    01:00 +24°C° 0 mm 1 mps 690 mmHg 55%
    02:00 +24°C° 0 mm 1 mps 690 mmHg 55%
    03:00 +23°C° 0 mm 1 mps 690 mmHg 55%
    04:00 +23°C° 0 mm 1 mps 691 mmHg 55%
    05:00 +23°C° 0 mm 1 mps 691 mmHg 56%
    06:00 +25°C° 0 mm 1 mps 692 mmHg 51%
    07:00 +27°C° 0 mm 1 mps 693 mmHg 47%
    08:00 +30°C° 0 mm 1 mps 693 mmHg 42%
    09:00 +31°C° 0 mm 1 mps 693 mmHg 40%
    10:00 +32°C° 0 mm 2 mps 693 mmHg 38%
    11:00 +35°C° 0 mm 2 mps 692 mmHg 36%
    12:00 +35°C° 0 mm 2 mps 692 mmHg 35%
    13:00 +35°C° 0 mm 2 mps 691 mmHg 35%
    14:00 +36°C° 0 mm 2 mps 690 mmHg 34%
    15:00 +34°C° 0 mm 2 mps 690 mmHg 38%
    16:00 +32°C° 0 mm 2 mps 690 mmHg 42%
    17:00 +31°C° 0 mm 1 mps 690 mmHg 45%
    18:00 +29°C° 0 mm 1 mps 690 mmHg 50%
    19:00 +28°C° 0 mm 1 mps 691 mmHg 54%
    20:00 +26°C° 0 mm 1 mps 691 mmHg 59%
    21:00 +26°C° 0 mm 1 mps 691 mmHg 60%
    22:00 +25°C° 0 mm 1 mps 691 mmHg 61%
    23:00 +25°C° 0 mm 1 mps 691 mmHg 62%

    24 October, Tuesday

    Time Temperature Precipitation Wind Pressure Humidity
    00:00 +25°C° 0 mm 1 mps 690 mmHg 63%
    01:00 +24°C° 0 mm 1 mps 690 mmHg 63%
    02:00 +24°C° 0 mm 1 mps 689 mmHg 64%
    03:00 +24°C° 0 mm 1 mps 690 mmHg 64%
    04:00 +23°C° 0 mm 1 mps 690 mmHg 64%
    05:00 +23°C° 0 mm 1 mps 690 mmHg 65%
    06:00 +25°C° 0 mm 1 mps 691 mmHg 59%
    07:00 +28°C° 0 mm 1 mps 692 mmHg 53%
    08:00 +30°C° 0 mm 1 mps 693 mmHg 47%
    09:00 +31°C° 0 mm 1 mps 692 mmHg 45%
    10:00 +32°C° 0 mm 2 mps 692 mmHg 43%
    11:00 +35°C° 0 mm 2 mps 691 mmHg 41%
    12:00 +34°C° 0 mm 2 mps 691 mmHg 42%
    13:00 +34°C° 0 mm 2 mps 690 mmHg 43%
    14:00 +34°C° 0 mm 2 mps 689 mmHg 45%
    15:00 +34°C° 0.3 mm 2 mps 689 mmHg 48%
    16:00 +32°C° 0.3 mm 1 mps 689 mmHg 51%
    17:00 +32°C° 0.3 mm 1 mps 689 mmHg 54%
    18:00 +30°C° 0.6 mm 1 mps 690 mmHg 61%
    19:00 +28°C° 0.6 mm 1 mps 690 mmHg 68%
    20:00 +24°C° 0.6 mm 0 mps 691 mmHg 75%
    21:00 +24°C° 0.4 mm 0 mps 691 mmHg 76%
    22:00 +25°C° 0.4 mm 1 mps 691 mmHg 77%
    23:00 +25°C° 0.4 mm 1 mps 691 mmHg 79%

    25 October, Wednesday

    Time Temperature Precipitation Wind Pressure Humidity
    00:00 +25°C° 0.4 mm 1 mps 690 mmHg 79%
    01:00 +25°C° 0.4 mm 1 mps 690 mmHg 80%
    02:00 +25°C° 0.4 mm 1 mps 690 mmHg 81%
    03:00 +24°C° 0 mm 1 mps 690 mmHg 81%
    04:00 +24°C° 0 mm 1 mps 690 mmHg 81%
    05:00 +24°C° 0 mm 1 mps 691 mmHg 82%
    06:00 +26°C° 0 mm 1 mps 691 mmHg 75%
    07:00 +27°C° 0 mm 1 mps 692 mmHg 69%
    08:00 +29°C° 0 mm 1 mps 692 mmHg 62%
    09:00 +30°C° 0.2 mm 1 mps 692 mmHg 58%
    10:00 +32°C° 0.2 mm 2 mps 692 mmHg 54%
    11:00 +34°C° 0.2 mm 2 mps 691 mmHg 50%
    12:00 +34°C° 0.7 mm 2 mps 690 mmHg 52%
    13:00 +34°C° 0.7 mm 2 mps 690 mmHg 55%
    14:00 +32°C° 0.7 mm 2 mps 689 mmHg 57%
    15:00 +32°C° 1 mm 2 mps 689 mmHg 60%
    16:00 +31°C° 1 mm 2 mps 689 mmHg 62%
    17:00 +30°C° 1 mm 1 mps 689 mmHg 65%
    18:00 +29°C° 0.8 mm 1 mps 689 mmHg 70%
    19:00 +27°C° 0.8 mm 1 mps 690 mmHg 75%
    20:00 +26°C° 0.8 mm 1 mps 690 mmHg 80%
    21:00 +26°C° 0.4 mm 1 mps 690 mmHg 81%
    22:00 +25°C° 0.4 mm 1 mps 690 mmHg 82%
    23:00 +25°C° 0.4 mm 1 mps 690 mmHg 83%
    Show more